Content
SEND FEEDBACK

Daily
Averages
Monthly
Summary
United States of America

BERKELEY, MISSOURI


Home > North America > United States > Missouri
Elevation: 564 feet     Latitude: 38 45N     Longitude: 090 22W

WEATHER
 
SELECT A DAY
Number of Records: 205,815;   Date Range: 1/1/95 - 9/29/14
 
SHARE

PRINT THIS DATA

[ ← Previous Day ]
WEATHER ALMANAC - MARCH 12, 2013
[ Next Day → ]
[ °C ]   °F
Weather ElementAverageHighLow
Temperature38.4 °F50 °F (1:51 pm)30 °F (6:51 am)
Dewpoint23 °F26.1 °F (5:51 pm)19.4 °F (11:51 pm)
Humidity55.6 %75 % (7:51 am)35 % (1:51 pm)
Barometer30.12 in30.22 in (10:51 pm)30.04 in (1:51 am)
Wind Speed13 mph21.9 mph (4:51 pm)
Wind Gust33.4 mph (4:51 pm)
Weather ElementAverage
Visibility10 mi
Wind DirectionWNW (286.1 °)

Weather ElementTotal
Precipitation---
Heating Degree Days25 (Base 65)
Averaged from 23 records on March 12, 2013
WEATHER CONDITIONS BREAKOUT
WIND DIRECTION BREAKOUT
WEATHER BY HOUR - MARCH 12, 2013
[ °C ]   °F
Local TimeTemperatureDewpointHumidityBarometerVisibilityWind DirectionWind SpeedGust SpeedPrecipitationEventsConditions
1:51 AM33.1 °F23.0 °F66 %30.04 in10.0 miWest (270°)6.9 mphPartly Cloudy
2:51 AM30.9 °F23.0 °F72 %30.06 in10.0 miWest (260°)6.9 mphClear
3:51 AM30.9 °F23.0 °F72 %30.04 in10.0 miWest (280°)9.2 mphClear
4:51 AM30.9 °F23.0 °F72 %30.04 in10.0 miWest (270°)10.4 mphPartly Cloudy
5:51 AM30.9 °F23.0 °F72 %30.08 in10.0 miWest (280°)10.4 mphScattered Clouds
6:51 AM30.0 °F21.9 °F72 %30.09 in10.0 miWest (280°)9.2 mphMostly Cloudy
7:51 AM30.0 °F23.0 °F75 %30.09 in10.0 miWest (280°)8.1 mphMostly Cloudy
8:51 AM33.8 °F21.2 °F60 %30.10 in10.0 miWest (280°)9.2 mphScattered Clouds
9:51 AM36.0 °F23.0 °F59 %30.14 in10.0 miWest (280°)10.4 mphMostly Cloudy
10:51 AM39.9 °F23.0 °F51 %30.14 in10.0 miWest (280°)10.4 mphScattered Clouds
11:51 AM44.1 °F24.1 °F45 %30.13 in10.0 miWest (280°)10.4 mph18.4 mphScattered Clouds
12:51 PM46.9 °F25.0 °F42 %30.13 in10.0 miWest (260°)13.8 mphScattered Clouds
1:51 PM50.0 °F23.0 °F35 %30.10 in10.0 miWest (270°)15.0 mph23.0 mphScattered Clouds
2:51 PM48.0 °F23.0 °F37 %30.09 in10.0 miNW (310°)16.1 mph23.0 mphScattered Clouds
3:51 PM48.0 °F25.0 °F41 %30.09 in10.0 miWNW (300°)18.4 mph29.9 mphMostly Cloudy
4:51 PM46.9 °F24.1 °F41 %30.11 in10.0 miWNW (290°)21.9 mph33.4 mphMostly Cloudy
5:51 PM45.0 °F26.1 °F48 %30.12 in10.0 miWNW (300°)19.6 mph33.4 mphScattered Clouds
6:51 PM41.0 °F24.1 °F51 %30.16 in10.0 miWNW (300°)19.6 mph32.2 mphScattered Clouds
7:51 PM39.0 °F21.9 °F50 %30.18 in10.0 miWNW (300°)13.8 mph23.0 mphPartly Cloudy
8:51 PM37.4 °F21.2 °F52 %30.16 in10.0 miWNW (300°)10.4 mphPartly Cloudy
9:51 PM37.0 °F23.0 °F57 %30.20 in10.0 miWNW (300°)13.8 mph25.3 mphScattered Clouds
10:51 PM37.0 °F23.0 °F57 %30.22 in10.0 miWNW (300°)15.0 mph24.2 mphMostly Cloudy
11:51 PM35.6 °F19.4 °F52 %30.21 in10.0 miNW (310°)19.6 mph26.5 mphMostly Cloudy
Hourly data recorded from KSTL, located miles away from Berkeley, Missouri







STORIES FROM OUR PARTNERS